{"data":{"norad_id":66466,"intl_designator":"2025-262L","name":"STARLINK-35388","alt_names":[],"object_type":"PAYLOAD","status":"ACTIVE","operator":null,"country":"US","launch_date":"2025-11-15","launch_site_code":"AFETR","launch_vehicle":null,"mission":null,"orbit_class":"UNKNOWN","rcs_meters":null,"size_class":null,"mass_kg":null,"dimensions":null,"purposes":["comms"],"wikipedia_slug":null,"has_3d_model":false,"image_url":null,"decayed_at":null,"tle_current":{"epoch":"2026-05-25T05:19:59.031264Z","epoch_age_seconds":49765,"freshness":"FRESH","line1":"1 66466U 25262L   26145.22221101  .00021210  00000+0  77782-3 0  9993","line2":"2 66466  42.9987 223.7337 0001199 283.8203  76.2515 15.27590631 30617","mean_motion":15.27590631,"eccentricity":0.0001199,"inclination_deg":42.9987,"raan_deg":223.7337,"arg_perigee_deg":283.8203,"mean_anomaly_deg":76.2515,"bstar":0.00077782,"rev_number":3061,"period_min":94.26609268069,"perigee_km":482.19461078963,"apogee_km":483.83991558194,"semimajor_km":6861.1542631858,"source":"CELESTRAK","updated_at":"2026-05-25T13:38:21.215940Z"}}}